"Pseudo-MPEC" for orA0886

Created 2025 Dec 20 22:35:24 UT using Find_Orb

Click here for an explanation of pseudo-MPECs

 
 Astrometry: 
     orA0886*KB2025 11 29.10945 06 52 54.62 +22 00 39.0    ~BT7Z 20.2 r NEOCPJ43
     orA0886 KB2025 11 29.12143 06 52 53.93 +22 00 57.5    ~BT7Z        NEOCPJ43
     orA0886 KB2025 11 29.13340 06 52 53.29 +22 01 17.1    ~BT7Z 19.6 r NEOCPJ43
     orA0886 1C2025 11 29.43749706 52 38.170+22 09 10.80   ~BUMo       VNEOCPG96
     orA0886 1C2025 11 29.44269606 52 37.780+22 09 18.50   ~BUMo       VNEOCPG96
     orA0886 1C2025 11 29.44789306 52 37.510+22 09 26.80   ~BUMo       VNEOCPG96

Station data:
(G96) Mt. Lemmon Survey  (N32.442729 W110.788720)  US/Arizona.  Observer E.
   J. Christensen. Measurers T. Beuden, V. F. Carvajal, D. Fay, J. B.
   Fazekas, D. C. Fuls, A. R. Gibbs, A. D. Grauer, H. Gröller, J. K. Hogan,
   R. A. Kowalski, S. M. Larson, G. J. Leonard, D. Rankin, R. L. Seaman, F.
   C. Shelly, K. W. Wierzchoś. 1.5-m reflector + 10K CCD.
(J43) Oukaïmeden Observatory, Marrakech  (N31.206437 W7.866460)  Morocco.
   Observer C. Rinner. Measurers C. Rinner, M. Ory. 0.5-m f/3 reflector + CCD.

Orbital elements:  orA0886
   Perihelion 2025 Aug 8.407455 +/- 129 TT =  9:46:44.1 (JD 2460895.907455)
Epoch 2025 Nov 29.0 TT = JDT 2461008.5   Earth MOID: 0.5580   Ma: 0.0561
M  46.756068163 +/- 90              (J2000 ecliptic)             AutoNEOCP
n   0.415267887 +/- 0.21            Peri.  294.808544 +/- 110
a   1.779305346 +/- 0.599           Node    82.235321 +/- 3.5
e   0.17878987 +/- 0.142            Incl.   20.859190 +/- 11
P   2.373/866.894d         H 18.80  G  0.15   U 11.7  SR
q 1.461183560 +/- 0.427    Q 2.097427131 +/- 0.851
From 6 observations 2025 Nov. 29 (8.1 hr); mean residual 0".41
Residuals in arcseconds: 
251129 J43  .35+  .21-    251129 J43  .15-  .61+    251129 G96  .54-  .21-    
251129 J43  .24-  .37-    251129 G96  .90+  .18+    251129 G96  .32-  .00     

Ephemerides (geocentric):
Date (UTC) HH   RA             Dec           delta  r     elong  mag " sig PA
---- --------  ------------   ------------  ------ ------ -----  --- --------
2025 12 20 23  06 22 22.373   +31 50 38.28  .66830 1.6457 169.7 19.5 183'  43
2025 12 21 00  06 22 17.812   +31 51 41.58  .66837 1.6458 169.7 19.5 184'  44
2025 12 21 01  06 22 13.250   +31 52 44.83  .66845 1.6459 169.7 19.5 185'  44
2025 12 21 02  06 22 08.685   +31 53 48.05  .66852 1.6460 169.8 19.5 186'  44
2025 12 21 03  06 22 04.119   +31 54 51.22  .66860 1.6461 169.8 19.5 187'  44
2025 12 21 04  06 21 59.551   +31 55 54.34  .66867 1.6462 169.8 19.5 188'  44
2025 12 21 05  06 21 54.982   +31 56 57.43  .66875 1.6463 169.8 19.5 189'  44
2025 12 21 06  06 21 50.410   +31 58 00.47  .66882 1.6464 169.8 19.5 189'  44
2025 12 21 07  06 21 45.837   +31 59 03.47  .66890 1.6465 169.8 19.5 190'  44
2025 12 21 08  06 21 41.262   +32 00 06.42  .66898 1.6466 169.9 19.5 191'  44
2025 12 21 09  06 21 36.686   +32 01 09.33  .66906 1.6467 169.9 19.5 192'  44
2025 12 21 10  06 21 32.108   +32 02 12.20  .66913 1.6468 169.9 19.5 193'  44
2025 12 21 11  06 21 27.528   +32 03 15.02  .66921 1.6469 169.9 19.5 194'  44
2025 12 21 12  06 21 22.947   +32 04 17.80  .66929 1.6469 169.9 19.5 195'  44
2025 12 21 13  06 21 18.364   +32 05 20.53  .66937 1.6470 169.9 19.5 196'  44
2025 12 21 14  06 21 13.779   +32 06 23.22  .66945 1.6471 170.0 19.5 197'  44
2025 12 21 15  06 21 09.193   +32 07 25.86  .66953 1.6472 170.0 19.5 198'  44
2025 12 21 16  06 21 04.605   +32 08 28.47  .66961 1.6473 170.0 19.5 199'  44
2025 12 21 17  06 21 00.016   +32 09 31.02  .66969 1.6474 170.0 19.5 199'  44
2025 12 21 18  06 20 55.425   +32 10 33.53  .66977 1.6475 170.0 19.5 200'  44
2025 12 21 19  06 20 50.833   +32 11 36.00  .66986 1.6476 170.0 19.5 201'  44
2025 12 21 20  06 20 46.239   +32 12 38.42  .66994 1.6477 170.0 19.5 202'  44
2025 12 21 21  06 20 41.644   +32 13 40.79  .67002 1.6478 170.0 19.5 203'  44
2025 12 21 22  06 20 37.048   +32 14 43.12  .67011 1.6479 170.1 19.5 204'  44
2025 12 21 23  06 20 32.449   +32 15 45.41  .67019 1.6480 170.1 19.5 205'  44
2025 12 22 00  06 20 27.850   +32 16 47.65  .67027 1.6481 170.1 19.5 206'  44
2025 12 22 01  06 20 23.249   +32 17 49.84  .67036 1.6482 170.1 19.5 207'  44
2025 12 22 02  06 20 18.647   +32 18 51.99  .67044 1.6483 170.1 19.5 208'  44
2025 12 22 03  06 20 14.043   +32 19 54.09  .67053 1.6484 170.1 19.5 209'  45
2025 12 22 04  06 20 09.438   +32 20 56.15  .67062 1.6485 170.1 19.5 210'  45
2025 12 22 05  06 20 04.832   +32 21 58.16  .67070 1.6486 170.1 19.5 211'  45
2025 12 22 06  06 20 00.224   +32 23 00.12  .67079 1.6486 170.1 19.5 212'  45
2025 12 22 07  06 19 55.615   +32 24 02.03  .67088 1.6487 170.1 19.5 213'  45
2025 12 22 08  06 19 51.005   +32 25 03.90  .67096 1.6488 170.2 19.5 214'  45
2025 12 22 09  06 19 46.394   +32 26 05.73  .67105 1.6489 170.2 19.5 215'  45
2025 12 22 10  06 19 41.781   +32 27 07.50  .67114 1.6490 170.2 19.5 216'  45
2025 12 22 11  06 19 37.167   +32 28 09.23  .67123 1.6491 170.2 19.5 217'  45
2025 12 22 12  06 19 32.552   +32 29 10.92  .67132 1.6492 170.2 19.5 218'  45
2025 12 22 13  06 19 27.935   +32 30 12.55  .67141 1.6493 170.2 19.5 219'  45
2025 12 22 14  06 19 23.318   +32 31 14.14  .67150 1.6494 170.2 19.5 220'  45
2025 12 22 15  06 19 18.699   +32 32 15.68  .67159 1.6495 170.2 19.5 221'  45
2025 12 22 16  06 19 14.079   +32 33 17.17  .67168 1.6496 170.2 19.5 222'  45
2025 12 22 17  06 19 09.458   +32 34 18.62  .67178 1.6497 170.2 19.5 223'  45
2025 12 22 18  06 19 04.836   +32 35 20.01  .67187 1.6498 170.2 19.5 224'  45
2025 12 22 19  06 19 00.213   +32 36 21.36  .67196 1.6499 170.2 19.5 225'  45
2025 12 22 20  06 18 55.589   +32 37 22.67  .67206 1.6500 170.2 19.5 226'  45
2025 12 22 21  06 18 50.964   +32 38 23.92  .67215 1.6501 170.2 19.5 227'  45
2025 12 22 22  06 18 46.337   +32 39 25.12  .67224 1.6502 170.2 19.5 228'  45